When you browse on this site, cookies collect data to enhance your experience and personalize the content and advertising you see.
Visit our Privacy Policy to learn more. By continuing to use the site, you agree to this use of cookies and data.
  • In Schweiz
  • Länderverzeichnis
  • Für 7 Tage
  • Wassertemperatur
  • Satellitenkarten
  • Wetterkarte
  • Widgets
  • user-avatar
    Anmelden

    Stündliche Wetter Mesznary

    Heute, 18 Februar, Montag

    Zeit Temperatur Niederschläge Wind Luftdruck Luftfeuchtigkeit
    00:00 +5°C° 0 mm 1 m/S 754 mmHg 73%
    01:00 +4°C° 0 mm 2 m/S 754 mmHg 75%
    02:00 +4°C° 0 mm 2 m/S 754 mmHg 77%
    03:00 +3°C° 0 mm 2 m/S 753 mmHg 78%
    04:00 +3°C° 0 mm 2 m/S 753 mmHg 80%
    05:00 +3°C° 0 mm 2 m/S 753 mmHg 80%
    06:00 +2°C° 0 mm 2 m/S 753 mmHg 80%
    07:00 +2°C° 0 mm 2 m/S 753 mmHg 80%
    08:00 +3°C° 0 mm 2 m/S 753 mmHg 74%
    09:00 +5°C° 0 mm 2 m/S 753 mmHg 68%
    10:00 +6°C° 0 mm 2 m/S 753 mmHg 62%
    11:00 +7°C° 0 mm 2 m/S 753 mmHg 57%
    12:00 +9°C° 0 mm 2 m/S 752 mmHg 51%
    13:00 +11°C° 0 mm 1 m/S 752 mmHg 46%
    14:00 +11°C° 0 mm 1 m/S 752 mmHg 48%
    15:00 +11°C° 0 mm 1 m/S 751 mmHg 50%
    16:00 +11°C° 0 mm 1 m/S 751 mmHg 51%
    17:00 +9°C° 0 mm 2 m/S 751 mmHg 55%
    18:00 +8°C° 0 mm 2 m/S 751 mmHg 59%
    19:00 +7°C° 0 mm 2 m/S 751 mmHg 62%
    20:00 +6°C° 0 mm 2 m/S 750 mmHg 66%
    21:00 +6°C° 0 mm 2 m/S 750 mmHg 70%
    22:00 +4°C° 0 mm 3 m/S 750 mmHg 74%
    23:00 +4°C° 0 mm 3 m/S 750 mmHg 75%

    Morgen, 19 Februar, Dienstag

    Zeit Temperatur Niederschläge Wind Luftdruck Luftfeuchtigkeit
    00:00 +3°C° 0 mm 3 m/S 750 mmHg 77%
    01:00 +3°C° 0 mm 3 m/S 750 mmHg 78%
    02:00 +2°C° 0 mm 3 m/S 750 mmHg 78%
    03:00 +2°C° 0 mm 3 m/S 749 mmHg 79%
    04:00 +1°C° 0 mm 3 m/S 749 mmHg 79%
    05:00 +1°C° 0 mm 3 m/S 749 mmHg 80%
    06:00 +1°C° 0 mm 3 m/S 748 mmHg 82%
    07:00 +1°C° 0 mm 3 m/S 748 mmHg 83%
    08:00 +1°C° 0 mm 4 m/S 748 mmHg 77%
    09:00 +4°C° 0 mm 4 m/S 748 mmHg 71%
    10:00 +5°C° 0 mm 4 m/S 748 mmHg 66%
    11:00 +6°C° 0 mm 4 m/S 748 mmHg 62%
    12:00 +8°C° 0 mm 4 m/S 747 mmHg 58%
    13:00 +10°C° 0 mm 4 m/S 747 mmHg 54%
    14:00 +10°C° 0 mm 4 m/S 747 mmHg 54%
    15:00 +10°C° 0 mm 4 m/S 747 mmHg 55%
    16:00 +10°C° 0 mm 4 m/S 747 mmHg 55%
    17:00 +8°C° 0 mm 4 m/S 747 mmHg 61%
    18:00 +7°C° 0 mm 4 m/S 747 mmHg 66%
    19:00 +6°C° 0 mm 4 m/S 747 mmHg 71%
    20:00 +6°C° 0.3 mm 4 m/S 747 mmHg 77%
    21:00 +6°C° 0.3 mm 4 m/S 748 mmHg 83%
    22:00 +5°C° 0.3 mm 4 m/S 748 mmHg 89%
    23:00 +5°C° 0.1 mm 4 m/S 748 mmHg 89%

    übermorgen, 20 Februar, Mittwoch

    Zeit Temperatur Niederschläge Wind Luftdruck Luftfeuchtigkeit
    00:00 +4°C° 0.1 mm 4 m/S 748 mmHg 90%
    01:00 +4°C° 0.1 mm 4 m/S 749 mmHg 91%
    02:00 +3°C° 0 mm 4 m/S 749 mmHg 91%
    03:00 +3°C° 0 mm 4 m/S 749 mmHg 91%
    04:00 +2°C° 0 mm 5 m/S 749 mmHg 91%
    05:00 +2°C° 0 mm 5 m/S 749 mmHg 90%
    06:00 +2°C° 0 mm 5 m/S 750 mmHg 89%
    07:00 +2°C° 0 mm 5 m/S 750 mmHg 89%
    08:00 +2°C° 0 mm 5 m/S 750 mmHg 86%
    09:00 +3°C° 0 mm 5 m/S 751 mmHg 84%
    10:00 +4°C° 0 mm 6 m/S 751 mmHg 81%
    11:00 +4°C° 0 mm 6 m/S 751 mmHg 77%
    12:00 +4°C° 0 mm 6 m/S 751 mmHg 73%
    13:00 +5°C° 0 mm 6 m/S 751 mmHg 69%
    14:00 +6°C° 0 mm 5 m/S 751 mmHg 69%
    15:00 +6°C° 0 mm 5 m/S 751 mmHg 68%
    16:00 +6°C° 0 mm 5 m/S 751 mmHg 67%
    17:00 +6°C° 0 mm 4 m/S 752 mmHg 71%
    18:00 +5°C° 0 mm 3 m/S 752 mmHg 75%
    19:00 +4°C° 0 mm 3 m/S 752 mmHg 78%
    20:00 +4°C° 0 mm 3 m/S 752 mmHg 80%
    21:00 +4°C° 0 mm 3 m/S 752 mmHg 83%
    22:00 +4°C° 0 mm 3 m/S 753 mmHg 85%
    23:00 +3°C° 0 mm 3 m/S 753 mmHg 86%

    21 Februar, Donnerstag

    Zeit Temperatur Niederschläge Wind Luftdruck Luftfeuchtigkeit
    00:00 +3°C° 0 mm 3 m/S 753 mmHg 87%
    01:00 +3°C° 0 mm 4 m/S 753 mmHg 88%
    02:00 +3°C° 0 mm 4 m/S 753 mmHg 87%
    03:00 +3°C° 0 mm 4 m/S 753 mmHg 87%
    04:00 +3°C° 0 mm 4 m/S 752 mmHg 86%
    05:00 +3°C° 0.2 mm 4 m/S 753 mmHg 86%
    06:00 +3°C° 0.2 mm 4 m/S 753 mmHg 87%
    07:00 +3°C° 0.2 mm 4 m/S 753 mmHg 87%
    08:00 +3°C° 0.2 mm 4 m/S 753 mmHg 86%
    09:00 +3°C° 0.2 mm 5 m/S 753 mmHg 85%
    10:00 +3°C° 0.2 mm 5 m/S 753 mmHg 85%
    11:00 +5°C° 0.1 mm 5 m/S 753 mmHg 83%
    12:00 +5°C° 0.1 mm 5 m/S 753 mmHg 82%
    13:00 +6°C° 0.1 mm 4 m/S 753 mmHg 80%
    14:00 +6°C° 0.4 mm 4 m/S 753 mmHg 84%
    15:00 +5°C° 0.4 mm 4 m/S 753 mmHg 88%
    16:00 +5°C° 0.4 mm 4 m/S 753 mmHg 92%
    17:00 +5°C° 0.3 mm 3 m/S 753 mmHg 93%
    18:00 +5°C° 0.3 mm 3 m/S 753 mmHg 94%
    19:00 +5°C° 0.3 mm 3 m/S 754 mmHg 96%
    20:00 +6°C° 0 mm 2 m/S 754 mmHg 96%
    21:00 +6°C° 0 mm 2 m/S 754 mmHg 97%
    22:00 +6°C° 0 mm 2 m/S 755 mmHg 97%
    23:00 +6°C° 0 mm 2 m/S 755 mmHg 97%

    22 Februar, Freitag

    Zeit Temperatur Niederschläge Wind Luftdruck Luftfeuchtigkeit
    00:00 +6°C° 0 mm 2 m/S 756 mmHg 97%
    01:00 +6°C° 0 mm 2 m/S 756 mmHg 97%
    02:00 +6°C° 0.1 mm 2 m/S 756 mmHg 97%
    03:00 +6°C° 0.1 mm 2 m/S 757 mmHg 97%
    04:00 +6°C° 0.1 mm 2 m/S 757 mmHg 97%
    05:00 +5°C° 0.1 mm 2 m/S 758 mmHg 97%
    06:00 +5°C° 0.1 mm 2 m/S 759 mmHg 97%
    07:00 +4°C° 0.1 mm 3 m/S 759 mmHg 97%
    08:00 +4°C° 0 mm 3 m/S 760 mmHg 95%
    09:00 +5°C° 0 mm 3 m/S 760 mmHg 92%
    10:00 +5°C° 0 mm 3 m/S 761 mmHg 90%
    11:00 +5°C° 0 mm 3 m/S 761 mmHg 88%
    12:00 +5°C° 0 mm 3 m/S 762 mmHg 86%
    13:00 +5°C° 0 mm 3 m/S 762 mmHg 84%
    14:00 +5°C° 0 mm 3 m/S 762 mmHg 81%
    15:00 +5°C° 0 mm 3 m/S 763 mmHg 77%
    16:00 +5°C° 0 mm 3 m/S 763 mmHg 74%
    17:00 +4°C° 0 mm 3 m/S 763 mmHg 71%
    18:00 +4°C° 0 mm 2 m/S 764 mmHg 69%
    19:00 +4°C° 0 mm 2 m/S 764 mmHg 66%
    20:00 +3°C° 0 mm 2 m/S 765 mmHg 62%
    21:00 +2°C° 0 mm 2 m/S 765 mmHg 59%
    22:00 +2°C° 0 mm 2 m/S 766 mmHg 55%
    23:00 +1°C° 0 mm 2 m/S 766 mmHg 56%

    23 Februar, Samstag

    Zeit Temperatur Niederschläge Wind Luftdruck Luftfeuchtigkeit
    00:00 +2°C° 0 mm 1 m/S 766 mmHg 56%
    01:00 +2°C° 0 mm 1 m/S 766 mmHg 57%
    02:00 +2°C° 0 mm 1 m/S 766 mmHg 56%
    03:00 +2°C° 0 mm 1 m/S 766 mmHg 56%
    04:00 +2°C° 0 mm 1 m/S 766 mmHg 55%
    05:00 +2°C° 0 mm 1 m/S 766 mmHg 54%
    06:00 +2°C° 0 mm 1 m/S 766 mmHg 53%
    07:00 +2°C° 0 mm 1 m/S 766 mmHg 52%
    08:00 +3°C° 0 mm 1 m/S 766 mmHg 49%
    09:00 +4°C° 0 mm 1 m/S 766 mmHg 46%
    10:00 +5°C° 0 mm 1 m/S 766 mmHg 44%
    11:00 +5°C° 0 mm 2 m/S 766 mmHg 46%
    12:00 +6°C° 0 mm 2 m/S 766 mmHg 49%
    13:00 +7°C° 0 mm 2 m/S 765 mmHg 51%
    14:00 +7°C° 0 mm 2 m/S 765 mmHg 56%
    15:00 +8°C° 0 mm 2 m/S 765 mmHg 60%
    16:00 +8°C° 0 mm 2 m/S 764 mmHg 65%
    17:00 +7°C° 0 mm 2 m/S 764 mmHg 70%
    18:00 +6°C° 0 mm 2 m/S 764 mmHg 76%
    19:00 +5°C° 0 mm 2 m/S 764 mmHg 82%
    20:00 +5°C° 0 mm 2 m/S 764 mmHg 84%
    21:00 +5°C° 0 mm 2 m/S 764 mmHg 85%
    22:00 +4°C° 0 mm 2 m/S 764 mmHg 87%
    23:00 +3°C° 0 mm 3 m/S 763 mmHg 88%
    Mehr zeigen